Simultaneous Nadir Overpasses (SNOs) Predictions

Prediction of SNOs between AQUA and METOP-B Satellite Orbit:

Table of predicted SNOs for the next 14.0 days since TLE Epoch: 9/4/2015
Index Date (AQUA) Time (AQUA) Lat,Lon (AQUA) SZA (AQUA ) Date (METOP-B) Time (METOP-B) Lat,Lon (METOP-B) SZA (METOP-B ) Distance(km) Time Diff (sec)
1 09/05/2015 09:19:59 73.76, 34.43 66.88 09/05/2015 09:19:31 73.73, 34.45 66.85 3.46 28
2 09/05/2015 10:09:26 -73.81,-158.05 113.06 09/05/2015 10:10:11 -73.83,-157.98 113.05 2.70 45
3 09/08/2015 04:04:33 -73.04, -65.28 112.85 09/08/2015 04:03:27 -73.02, -68.06 112.78 90.43 66
4 09/08/2015 04:54:14 73.77, 100.84 67.93 09/08/2015 04:53:52 73.74, 100.90 67.91 2.92 22
5 09/08/2015 05:43:41 -73.82, -91.63 112.01 09/08/2015 05:44:33 -73.80, -91.65 112.03 2.41 52
6 09/10/2015 23:38:54 -73.32, 0.58 111.50 09/10/2015 23:37:45 -73.24, -1.19 111.53 57.40 69
7 09/11/2015 00:28:29 73.74, 167.34 68.95 09/11/2015 00:28:14 73.76, 167.34 68.98 2.43 15
8 09/11/2015 01:17:57 -73.84, -25.24 110.93 09/11/2015 01:18:55 -73.81, -25.21 110.96 3.13 58
9 09/13/2015 19:13:14 -73.57, 66.50 110.17 09/13/2015 19:12:02 -73.50, 65.81 110.22 23.17 72
10 09/13/2015 20:02:45 73.78,-126.32 70.06 09/13/2015 20:02:36 73.77,-126.23 70.06 2.88 9
11 09/13/2015 20:52:12 -73.83, 41.22 109.88 09/13/2015 20:53:17 -73.83, 41.23 109.88 0.20 65
12 09/16/2015 14:47:30 -73.68, 132.71 108.99 09/16/2015 14:46:19 -73.71, 132.69 108.94 3.68 71
13 09/16/2015 15:36:59 73.78, -59.89 71.14 09/16/2015 15:36:57 73.78, -59.80 71.14 2.85 2




NCC Satellite Simultaneous Nadir Overpasses (SNOs) Prediction Service
